Weather History for Franklin, NC

Change the Weather History Date:

Tuesday, June 24, 2014

  Actual Average (KTOC) Record (KTOC)
Temperature  
Mean Temperature 70 °F -  
Max Temperature 77 °F 88 °F 85 °F (2014)
Min Temperature 62 °F 64 °F 71 °F (2014)
Cooling Degree Days 4    
Growing Degree Days 20 (Base 50)    
Moisture  
Dew Point 65 °F    
Average Humidity 88    
Maximum Humidity 100    
Minimum Humidity 64    
Precipitation  
Precipitation 0.43 in - - ()
Sea Level Pressure  
Sea Level Pressure 30.14 in    
Wind  
Wind Speed 1 mph (ESE)    
Max Wind Speed 8 mph    
Max Gust Speed -    
Visibility 7 miles    
Events Fog , Rain    
Averages and records for this station are not official NWS values.
T = Trace of Precipitation, MM = Missing Value Source: NWS Daily Summary

Daily Weather History Graph

Daily Weather History Graph

Search for Another Location

Airport:

Trip Planner

Search our weather history database for the weather conditions in past years. The results will help you decide how hot, cold, wet, or windy it might be!

Date:

Astronomy

Jun. 24, 2014 Rise Set
Actual Time 6:20 AM EDT 8:52 PM EDT
Civil Twilight 5:50 AM EDT 9:21 PM EDT
Nautical Twilight 5:13 AM EDT 9:58 PM EDT
Astronomical Twilight 4:32 AM EDT 10:39 PM EDT
Moon 4:21 AM EDT (6/24) 6:33 PM EDT (6/24)
Length of Visible Light 15h 31m
Length of Day
14h 31m
Waning Crescent, 7% of the Moon is Illuminated
Jun 24
Waning Crescent
Jun 27
New
Jul 5
First Quarter
Jul 12
Full
Jul 18
Last Quarter

Hourly Weather History & Observations

Time (EDT) Temp. Dew Point Humidity Pressure Visibility Wind Dir Wind Speed Gust Speed Precip Events Conditions
12:15 AM 66.7 °F 66.7 °F 100% 30.18 in 1.8 mi East 3.5 mph - 0.38 in Rain Heavy Rain
12:40 AM 65.7 °F 65.7 °F 100% 30.17 in 7.0 mi Calm Calm - 0.42 in Rain Rain
12:55 AM 65.5 °F 65.5 °F 100% 30.16 in 7.0 mi Calm Calm - 0.42 in   Overcast
1:20 AM 65.1 °F 65.1 °F 100% 30.16 in 7.0 mi Calm Calm - N/A   Overcast
1:35 AM 64.6 °F 64.6 °F 100% 30.16 in 7.0 mi Calm Calm - N/A   Mostly Cloudy
2:00 AM 64.4 °F 64.4 °F 100% 30.15 in 7.0 mi Calm Calm - N/A   Clear
2:15 AM 63.7 °F 63.7 °F 100% 30.15 in 4.0 mi Calm Calm - N/A   Scattered Clouds
2:35 AM 63.1 °F 63.1 °F 100% 30.15 in 0.8 mi Calm Calm - N/A   Overcast
2:55 AM 63.1 °F 63.1 °F 100% 30.15 in 0.2 mi Calm Calm - N/A Fog Fog
3:15 AM 62.8 °F 62.8 °F 100% 30.15 in 0.8 mi Calm Calm - N/A   Overcast
3:35 AM 63.0 °F 63.0 °F 100% 30.15 in 0.8 mi Calm Calm - 0.01 in   Overcast
3:55 AM 63.0 °F 63.0 °F 100% 30.15 in 0.8 mi Calm Calm - 0.01 in   Overcast
4:15 AM 63.0 °F 63.0 °F 100% 30.14 in 0.5 mi Calm Calm - N/A Fog Fog
4:35 AM 63.0 °F 63.0 °F 100% 30.15 in 0.5 mi Calm Calm - N/A Fog Fog
4:55 AM 63.1 °F 63.0 °F 99% 30.15 in 1.5 mi Calm Calm - N/A   Overcast
5:15 AM 62.8 °F 62.6 °F 99% 30.16 in 2.5 mi Calm Calm - N/A   Overcast
5:35 AM 62.6 °F 62.6 °F 100% 30.16 in 4.0 mi Calm Calm - N/A   Overcast
6:15 AM 62.6 °F 62.1 °F 98% 30.16 in 5.0 mi Calm Calm - N/A   Overcast
6:35 AM 62.6 °F 62.2 °F 99% 30.16 in 2.0 mi Calm Calm - N/A   Overcast
6:55 AM 62.6 °F 62.1 °F 98% 30.16 in 1.5 mi Calm Calm - N/A   Overcast
7:15 AM 62.6 °F 62.1 °F 98% 30.17 in 3.0 mi Calm Calm - N/A   Overcast
7:35 AM 62.6 °F 62.2 °F 99% 30.17 in 2.0 mi Calm Calm - N/A   Overcast
7:55 AM 62.8 °F 62.2 °F 98% 30.17 in 2.5 mi Calm Calm - N/A   Overcast
8:20 AM 63.5 °F 63.1 °F 99% 30.18 in 5.0 mi Calm Calm - N/A   Overcast
8:35 AM 64.4 °F 64.0 °F 99% 30.18 in 5.0 mi Calm Calm - N/A   Overcast
8:55 AM 65.3 °F 65.3 °F 100% 30.18 in 7.0 mi Calm Calm - N/A   Overcast
9:15 AM 65.3 °F 65.3 °F 100% 30.18 in 7.0 mi Calm Calm - N/A   Overcast
9:30 AM 65.7 °F 65.7 °F 100% 30.18 in 7.0 mi Calm Calm - N/A   Overcast
10:00 AM 66.2 °F 66.2 °F 100% 30.18 in 7.0 mi NNE 3.5 mph - N/A   Overcast
10:15 AM 67.6 °F 67.6 °F 100% 30.18 in 7.0 mi Calm Calm - N/A   Overcast
10:40 AM 69.1 °F 65.8 °F 89% 30.17 in 10.0 mi SE 3.5 mph - N/A   Mostly Cloudy
11:15 AM 72.3 °F 65.7 °F 79% 30.17 in 10.0 mi Calm Calm - N/A   Mostly Cloudy
11:40 AM 72.9 °F 63.7 °F 73% 30.17 in 10.0 mi East 4.6 mph - N/A   Mostly Cloudy
12:00 PM 73.6 °F 64.6 °F 73% 30.16 in 10.0 mi SE 5.8 mph - N/A   Mostly Cloudy
12:15 PM 74.3 °F 64.2 °F 71% 30.16 in 10.0 mi South 4.6 mph - N/A   Scattered Clouds
12:35 PM 75.2 °F 64.0 °F 68% 30.16 in 10.0 mi ESE 4.6 mph - N/A   Scattered Clouds
12:55 PM 74.8 °F 64.0 °F 69% 30.15 in 10.0 mi SSE 5.8 mph - N/A   Mostly Cloudy
1:15 PM 75.2 °F 63.7 °F 67% 30.15 in 10.0 mi SSE 5.8 mph - N/A   Mostly Cloudy
1:30 PM 76.3 °F 63.3 °F 64% 30.14 in 10.0 mi SSW 5.8 mph - N/A   Mostly Cloudy
1:55 PM 74.5 °F 63.5 °F 68% 30.14 in 10.0 mi SE 3.5 mph - N/A   Overcast
2:20 PM 75.6 °F 63.9 °F 67% 30.13 in 10.0 mi ESE 3.5 mph - N/A   Overcast
2:50 PM 74.7 °F 64.6 °F 71% 30.14 in 10.0 mi North 8.1 mph - N/A   Overcast
3:15 PM 73.6 °F 65.5 °F 76% 30.13 in 10.0 mi NNW 3.5 mph - N/A Rain Light Rain
3:35 PM 75.0 °F 64.2 °F 69% 30.12 in 10.0 mi NNE 4.6 mph - N/A   Scattered Clouds
4:20 PM 77.0 °F 64.6 °F 65% 30.11 in 10.0 mi Calm Calm - N/A   Scattered Clouds
4:35 PM 77.4 °F 64.4 °F 64% 30.11 in 10.0 mi Calm Calm - N/A   Scattered Clouds
4:55 PM 77.2 °F 65.7 °F 67% 30.10 in 10.0 mi Calm Calm - N/A   Scattered Clouds
5:15 PM 77.5 °F 66.0 °F 68% 30.09 in 10.0 mi Calm Calm - N/A   Mostly Cloudy
5:35 PM 75.9 °F 65.1 °F 69% 30.09 in 10.0 mi Calm Calm - N/A   Overcast
6:15 PM 75.2 °F 64.9 °F 70% 30.08 in 10.0 mi SE 5.8 mph - N/A   Mostly Cloudy
6:40 PM 75.7 °F 65.5 °F 70% 30.07 in 10.0 mi ESE 3.5 mph - N/A   Scattered Clouds
6:55 PM 75.2 °F 64.9 °F 70% 30.07 in 10.0 mi ESE 3.5 mph - N/A   Scattered Clouds
7:15 PM 75.2 °F 64.9 °F 70% 30.08 in 10.0 mi Calm Calm - N/A   Clear
7:35 PM 74.1 °F 64.8 °F 72% 30.10 in 10.0 mi Calm Calm - N/A   Mostly Cloudy
7:55 PM 73.4 °F 64.4 °F 73% 30.11 in 10.0 mi Calm Calm - N/A   Mostly Cloudy
8:55 PM 70.3 °F 69.1 °F 96% 30.10 in 10.0 mi Calm Calm - N/A Rain Light Rain
9:15 PM 69.1 °F 69.1 °F 100% 30.10 in 10.0 mi Calm Calm - N/A   Scattered Clouds
9:40 PM 68.0 °F 68.0 °F 100% 30.10 in 7.0 mi Calm Calm - N/A   Mostly Cloudy
9:50 PM 68.2 °F 68.2 °F 100% 30.10 in 7.0 mi Calm Calm - N/A   Mostly Cloudy
10:20 PM 67.8 °F 67.8 °F 100% 30.11 in 7.0 mi Calm Calm - N/A   Mostly Cloudy
10:35 PM 67.3 °F 67.3 °F 100% 30.11 in 7.0 mi Calm Calm - N/A   Mostly Cloudy
10:55 PM 67.3 °F 67.3 °F 100% 30.11 in 10.0 mi Calm Calm - N/A   Mostly Cloudy
11:15 PM 67.1 °F 67.1 °F 100% 30.12 in 7.0 mi Calm Calm - N/A   Scattered Clouds
11:35 PM 66.4 °F 66.4 °F 100% 30.11 in 5.0 mi Calm Calm - N/A   Scattered Clouds
11:55 PM 65.5 °F 65.5 °F 100% 30.11 in 5.0 mi Calm Calm - N/A   Clear